Location: Newark
(49.0000°N, 1.1667°E)
Time: 03:37:57
(UTC+00:00)

ISS - Visible Passes

Search period start: 23 July 2019 00:00
Search period end: 02 August 2019 00:00
Orbit: 409 x 418 km, 51.6° (Epoch: 23 July)

Date Brightness Start Highest point End Pass type
(mag) Time Alt. Az. Time Alt. Az. Time Alt. Az.
23 Jul -2.1 00:12:26 10° WNW 00:14:00 25° W 00:14:00 25° W visible
23 Jul -2.9 21:46:19 10° WNW 21:49:36 51° N 21:52:52 10° ENE visible
23 Jul -3.5 23:23:06 10° WNW 23:25:59 63° WNW 23:25:59 63° WNW visible
24 Jul -3.0 20:56:55 10° W 21:00:13 53° N 21:03:30 10° ENE visible
24 Jul -3.6 22:33:47 10° WNW 22:37:08 71° NNE 22:38:03 43° E visible
25 Jul -1.0 00:10:39 10° W 00:10:51 11° W 00:10:51 11° W visible
25 Jul -3.3 21:44:26 10° WNW 21:47:46 59° N 21:50:09 17° E visible
25 Jul -2.2 23:21:13 10° WNW 23:22:58 27° W 23:22:58 27° W visible
26 Jul -3.0 20:55:04 10° WNW 20:58:21 53° N 21:01:38 10° E visible
26 Jul -3.9 22:31:50 10° WNW 22:35:08 71° SSW 22:35:08 71° SSW visible
27 Jul -3.8 21:42:27 10° WNW 21:45:48 85° NNE 21:47:18 30° ESE visible
27 Jul -1.3 23:19:28 10° W 23:20:07 14° W 23:20:07 14° W visible
28 Jul -3.5 20:53:04 10° WNW 20:56:25 67° NNE 20:59:30 12° E visible
28 Jul -2.6 22:29:54 10° W 22:32:20 32° WSW 22:32:20 32° WSW visible
29 Jul -3.6 21:40:26 10° WNW 21:43:42 54° SSW 21:44:34 40° SSE visible
30 Jul -3.8 20:51:01 10° WNW 20:54:22 78° SSW 20:56:49 17° ESE visible
30 Jul -1.5 22:28:20 10° W 22:29:38 16° WSW 22:29:38 16° WSW visible
31 Jul -2.5 21:38:33 10° W 21:41:25 26° SW 21:41:56 25° SSW visible
01 Aug -3.0 20:48:59 10° WNW 20:52:08 40° SSW 20:54:15 18° SSE visible
